Oakland, ME

2:35 AM EST on February 22, 2017 (GMT -0500)
Waterville Lafleur

Weather History for KWVL - September, 2013

Change the Weather History Date:

Sunday, September 1, 2013

  Actual Average Record
Temperature  
Mean Temperature 74 °F -  
Max Temperature 80 °F 78 °F 91 °F (2010)
Min Temperature 68 °F 51 °F 37 °F (2002)
Cooling Degree Days 9    
Growing Degree Days 24 (Base 50)    
Moisture  
Dew Point 67 °F    
Average Humidity 82    
Maximum Humidity 100    
Minimum Humidity 58    
Precipitation  
Precipitation 0.48 in - - ()
Sea Level Pressure  
Sea Level Pressure 29.82 in    
Wind  
Wind Speed 2 mph (North)    
Max Wind Speed 9 mph    
Max Gust Speed -    
Visibility 7 miles    
Events Thunderstorm    
Averages and records for this station are not official NWS values.
T = Trace of Precipitation, MM = Missing Value Source: NWS Daily Summary

Daily Weather History Graph

Daily Weather History Graph

Search for Another Location

Airport or City:

Trip Planner

Search our weather history database for the weather conditions in past years. The results will help you decide how hot, cold, wet, or windy it might be!

Date:

Astronomy

Sep. 01, 2013 Rise Set
Actual Time 6:01 AM EDT 7:14 PM EDT
Civil Twilight 5:31 AM EDT 7:44 PM EDT
Nautical Twilight 4:55 AM EDT 8:20 PM EDT
Astronomical Twilight 4:17 AM EDT 8:58 PM EDT
Moon 2:14 AM EDT (9/1) 4:54 PM EDT (9/1)
Length of Visible Light 14h 13m
Length of Day
13h 13m
Waning Crescent, 14% of the Moon is Illuminated
Sep 1
Waning Crescent
Sep 5
New
Sep 12
First Quarter
Sep 19
Full
Sep 26
Last Quarter

Hourly Weather History & Observations

Time (EDT) Temp. Heat Index Dew Point Humidity Pressure Visibility Wind Dir Wind Speed Gust Speed Precip Events Conditions
12:15 AM 69.8 °F - 68.0 °F 94% 29.75 in 2.5 mi Calm Calm - 0.07 in   Overcast
12:35 AM 69.8 °F - 68.0 °F 94% 29.75 in 1.2 mi Calm Calm - 0.09 in   Overcast
12:55 AM 69.8 °F - 68.0 °F 94% 29.76 in 1.2 mi Calm Calm - 0.10 in   Overcast
1:15 AM 69.8 °F - 68.0 °F 94% 29.75 in 1.0 mi Calm Calm - N/A   Overcast
1:35 AM 69.8 °F - 68.0 °F 94% 29.74 in 0.5 mi SW 4.6 mph - N/A   Overcast
1:55 AM 69.8 °F - 68.0 °F 94% 29.74 in 0.2 mi SW 5.8 mph - N/A   Overcast
2:15 AM 69.8 °F - 68.0 °F 94% 29.74 in 0.2 mi Calm Calm - N/A   Overcast
2:35 AM 69.8 °F - 68.0 °F 94% 29.74 in 0.2 mi Calm Calm - N/A   Overcast
2:55 AM 69.8 °F - 68.0 °F 94% 29.74 in 0.2 mi Calm Calm - N/A   Overcast
3:15 AM 69.8 °F - 68.0 °F 94% 29.74 in 0.2 mi Calm Calm - N/A   Overcast
3:35 AM 69.8 °F - 68.0 °F 94% 29.73 in 0.2 mi Calm Calm - N/A   Overcast
3:55 AM 69.8 °F - 68.0 °F 94% 29.73 in 0.2 mi Calm Calm - N/A   Overcast
4:15 AM 69.8 °F - 68.0 °F 94% 29.75 in 0.2 mi Calm Calm - N/A   Overcast
4:35 AM 69.8 °F - 68.0 °F 94% 29.75 in 0.2 mi Calm Calm - N/A   Overcast
4:55 AM 69.8 °F - 68.0 °F 94% 29.75 in 0.2 mi North 3.5 mph - N/A   Overcast
5:15 AM 68.0 °F - 66.2 °F 94% 29.75 in 0.2 mi North 4.6 mph - N/A   Overcast
5:35 AM 68.0 °F - 66.2 °F 94% 29.77 in 0.2 mi Calm Calm - N/A   Overcast
5:55 AM 68.0 °F - 68.0 °F 100% 29.79 in 3.0 mi SW 5.8 mph - 0.14 in Thunderstorm Overcast
6:15 AM 68.0 °F - 66.2 °F 94% 29.76 in 3.0 mi Calm Calm - 0.21 in Thunderstorm Mostly Cloudy
6:35 AM 68.0 °F - 66.2 °F 94% 29.78 in 1.8 mi SSE 3.5 mph - 0.24 in   Mostly Cloudy
6:55 AM 68.0 °F - 66.2 °F 94% 29.78 in 0.2 mi Calm Calm - 0.24 in   Overcast
7:15 AM 69.8 °F - 68.0 °F 94% 29.79 in 4.0 mi West 3.5 mph - N/A   Mostly Cloudy
7:35 AM 69.8 °F - 68.0 °F 94% 29.80 in 7.0 mi WNW 3.5 mph - N/A   Overcast
7:55 AM 69.8 °F - 69.8 °F 100% 29.81 in 10.0 mi NNW 6.9 mph - N/A   Overcast
8:15 AM 69.8 °F - 69.8 °F 100% 29.80 in 7.0 mi NNW 5.8 mph - N/A   Overcast
8:35 AM 69.8 °F - 69.8 °F 100% 29.80 in 9.0 mi NNW 6.9 mph - N/A   Mostly Cloudy
8:55 AM 71.6 °F - 69.8 °F 94% 29.81 in 10.0 mi NNW 5.8 mph - N/A   Partly Cloudy
9:15 AM 71.6 °F - 68.0 °F 88% 29.81 in 10.0 mi NNW 5.8 mph - N/A   Clear
9:35 AM 73.4 °F - 68.0 °F 83% 29.82 in 10.0 mi North 9.2 mph - N/A   Clear
9:55 AM 73.4 °F - 66.2 °F 78% 29.81 in 10.0 mi NNE 8.1 mph - N/A   Clear
10:15 AM 75.2 °F - 68.0 °F 78% 29.81 in 10.0 mi NNW 4.6 mph - N/A   Scattered Clouds
10:35 AM 75.2 °F - 66.2 °F 73% 29.82 in 10.0 mi NNW 8.1 mph - N/A   Mostly Cloudy
10:55 AM 75.2 °F - 66.2 °F 73% 29.82 in 10.0 mi North 8.1 mph - N/A   Mostly Cloudy
11:15 AM 75.2 °F - 66.2 °F 73% 29.83 in 10.0 mi NNE 4.6 mph - N/A   Partly Cloudy
11:35 AM 77.0 °F - 66.2 °F 69% 29.83 in 10.0 mi NNW 5.8 mph - N/A   Scattered Clouds
11:55 AM 77.0 °F - 66.2 °F 69% 29.84 in 10.0 mi NNW 8.1 mph - N/A   Mostly Cloudy
12:15 PM 80.6 °F 82.7 °F 66.2 °F 61% 29.84 in 10.0 mi North 9.2 mph - N/A   Mostly Cloudy
12:35 PM 78.8 °F - 64.4 °F 61% 29.84 in 10.0 mi North 4.6 mph - N/A   Mostly Cloudy
12:55 PM 78.8 °F - 66.2 °F 65% 29.84 in 10.0 mi NNE 4.6 mph - N/A   Overcast
1:15 PM 78.8 °F - 64.4 °F 61% 29.84 in 10.0 mi NNE 4.6 mph - N/A   Mostly Cloudy
1:35 PM 78.8 °F - 64.4 °F 61% 29.84 in 10.0 mi Calm Calm - N/A   Mostly Cloudy
1:55 PM 78.8 °F - 66.2 °F 65% 29.84 in 10.0 mi North 8.1 mph - N/A   Mostly Cloudy
2:15 PM 78.8 °F - 64.4 °F 61% 29.84 in 10.0 mi NE 4.6 mph - N/A   Scattered Clouds
2:35 PM 78.8 °F - 64.4 °F 61% 29.84 in 10.0 mi Calm Calm - N/A   Mostly Cloudy
2:55 PM 78.8 °F - 64.4 °F 61% 29.84 in 10.0 mi NE 3.5 mph - N/A   Overcast
3:15 PM 78.8 °F - 64.4 °F 61% 29.84 in 10.0 mi Calm Calm - N/A   Mostly Cloudy
3:35 PM 80.6 °F 82.3 °F 64.4 °F 58% 29.84 in 10.0 mi Calm Calm - N/A   Mostly Cloudy
3:55 PM 80.6 °F 82.3 °F 64.4 °F 58% 29.84 in 10.0 mi Calm Calm - N/A   Mostly Cloudy
4:15 PM 80.6 °F 82.3 °F 64.4 °F 58% 29.84 in 10.0 mi NNE 5.8 mph - N/A   Scattered Clouds
4:35 PM 78.8 °F - 66.2 °F 65% 29.84 in 10.0 mi Calm Calm - N/A   Scattered Clouds
4:55 PM 78.8 °F - 66.2 °F 65% 29.85 in 10.0 mi Calm Calm - N/A   Scattered Clouds
5:15 PM 80.6 °F 82.7 °F 66.2 °F 61% 29.85 in 10.0 mi Calm Calm - N/A   Partly Cloudy
5:35 PM 80.6 °F 82.7 °F 66.2 °F 61% 29.85 in 10.0 mi Calm Calm - N/A   Scattered Clouds
5:55 PM 78.8 °F - 66.2 °F 65% 29.85 in 10.0 mi Calm Calm - N/A   Partly Cloudy
6:15 PM 78.8 °F - 66.2 °F 65% 29.85 in 10.0 mi Calm Calm - N/A   Clear
6:35 PM 77.0 °F - 66.2 °F 69% 29.86 in 10.0 mi Calm Calm - N/A   Clear
6:55 PM 75.2 °F - 66.2 °F 73% 29.86 in 10.0 mi Calm Calm - N/A   Mostly Cloudy
7:15 PM 73.4 °F - 68.0 °F 83% 29.87 in 10.0 mi South 3.5 mph - N/A   Mostly Cloudy
7:35 PM 73.4 °F - 68.0 °F 83% 29.87 in 7.0 mi Calm Calm - N/A   Mostly Cloudy
7:55 PM 71.6 °F - 68.0 °F 88% 29.88 in 4.0 mi Calm Calm - N/A   Scattered Clouds
8:15 PM 71.6 °F - 68.0 °F 88% 29.90 in 10.0 mi Calm Calm - N/A   Scattered Clouds
8:35 PM 69.8 °F - 68.0 °F 94% 29.89 in 10.0 mi Calm Calm - N/A   Scattered Clouds
8:55 PM 69.8 °F - 66.2 °F 88% 29.89 in 10.0 mi Calm Calm - N/A   Mostly Cloudy
9:15 PM 69.8 °F - 66.2 °F 88% 29.89 in 10.0 mi Calm Calm - N/A   Mostly Cloudy
9:35 PM 69.8 °F - 66.2 °F 88% 29.89 in 10.0 mi Calm Calm - N/A   Partly Cloudy
9:55 PM 69.8 °F - 66.2 °F 88% 29.89 in 10.0 mi Calm Calm - N/A   Clear
10:15 PM 69.8 °F - 66.2 °F 88% 29.89 in 10.0 mi Calm Calm - N/A   Mostly Cloudy
10:35 PM 69.8 °F - 66.2 °F 88% 29.89 in 10.0 mi Calm Calm - N/A   Overcast
10:55 PM 69.8 °F - 66.2 °F 88% 29.89 in 10.0 mi Calm Calm - N/A   Overcast
11:15 PM 69.8 °F - 66.2 °F 88% 29.89 in 10.0 mi Calm Calm - N/A   Overcast
11:35 PM 69.8 °F - 66.2 °F 88% 29.91 in 10.0 mi Calm Calm - N/A   Overcast
11:55 PM 69.8 °F - 66.2 °F 88% 29.90 in 10.0 mi NNE 3.5 mph - N/A   Overcast